Time,TemperatureF,DewpointF,PressureIn,WindDirection,WindDirectionDegrees,WindSpeedMPH,WindSpeedGustMPH,Humidity,HourlyPrecipIn,Conditions,Clouds,dailyrainin,SoftwareType,DateUTC
2013-07-22 06:18:00,71.6,71.0,29.91,SSW,212,2.0,2.0,98,0.00,,,0.00,Wunderground v.1.15,2013-07-22 10:18:00,
2013-07-22 06:19:00,71.6,71.0,29.91,SSW,212,2.0,2.0,98,0.00,,,0.00,Wunderground v.1.15,2013-07-22 10:19:00,
2013-07-22 06:20:00,71.6,71.0,29.91,SSW,212,2.0,2.0,98,0.00,,,0.00,Wunderground v.1.15,2013-07-22 10:20:00,
2013-07-22 06:23:00,71.6,71.0,29.91,SSW,212,2.0,2.0,98,0.00,,,0.00,Wunderground v.1.15,2013-07-22 10:23:00,
2013-07-22 06:25:00,71.5,70.9,29.91,SSW,212,2.0,2.0,98,0.00,,,0.00,Wunderground v.1.15,2013-07-22 10:25:00,
2013-07-22 06:31:00,71.5,70.9,29.91,SSW,212,1.0,2.0,98,0.00,,,0.00,Wunderground v.1.15,2013-07-22 10:31:00,
2013-07-22 06:37:00,71.5,70.9,29.91,SSW,212,0.0,2.0,98,0.00,,,0.00,Wunderground v.1.15,2013-07-22 10:37:00,
2013-07-22 06:43:00,71.5,70.9,29.92,SSW,212,0.0,1.0,98,0.00,,,0.00,Wunderground v.1.15,2013-07-22 10:43:00,
2013-07-22 06:49:00,71.5,70.9,29.92,SSW,212,0.0,0.0,98,0.00,,,0.00,Wunderground v.1.15,2013-07-22 10:49:00,
2013-07-22 06:55:00,71.6,71.0,29.92,SSW,212,0.0,0.0,98,0.00,,,0.00,Wunderground v.1.15,2013-07-22 10:55:00,
2013-07-22 07:00:00,71.6,71.0,29.92,SSW,212,0.0,0.0,98,0.00,,,0.00,Wunderground v.1.15,2013-07-22 11:00:00,
2013-07-22 07:06:00,71.7,71.1,29.92,SSW,212,0.0,0.0,98,0.00,,,0.00,Wunderground v.1.15,2013-07-22 11:06:00,
2013-07-22 07:12:00,71.7,71.1,29.92,SW,215,0.0,0.0,98,0.00,,,0.00,Wunderground v.1.15,2013-07-22 11:12:00,
2013-07-22 07:18:00,71.8,71.2,29.92,SW,216,0.0,2.0,98,0.00,,,0.00,Wunderground v.1.15,2013-07-22 11:18:00,
2013-07-22 07:24:00,72.0,71.7,29.93,SSW,211,1.0,4.0,99,0.00,,,0.00,Wunderground v.1.15,2013-07-22 11:24:00,
2013-07-22 07:30:00,72.0,71.4,29.93,SSW,211,3.0,3.0,98,0.00,,,0.00,Wunderground v.1.15,2013-07-22 11:30:00,
2013-07-22 07:36:00,72.1,71.5,29.93,SSW,212,3.0,4.0,98,0.00,,,0.00,Wunderground v.1.15,2013-07-22 11:36:00,
2013-07-22 07:42:00,72.1,71.5,29.93,SSW,212,3.0,3.0,98,0.00,,,0.00,Wunderground v.1.15,2013-07-22 11:42:00,
2013-07-22 07:48:00,72.1,71.5,29.92,SSW,212,2.0,3.0,98,0.00,,,0.00,Wunderground v.1.15,2013-07-22 11:48:00,
2013-07-22 07:53:00,72.2,71.6,29.92,SSW,212,2.0,3.0,98,0.00,,,0.00,Wunderground v.1.15,2013-07-22 11:53:00,
2013-07-22 07:59:00,72.4,71.8,29.93,SSW,212,2.0,3.0,98,0.00,,,0.00,Wunderground v.1.15,2013-07-22 11:59:00,
2013-07-22 08:05:00,72.6,72.3,29.93,SSW,209,2.0,4.0,99,0.00,,,0.00,Wunderground v.1.15,2013-07-22 12:05:00,
2013-07-22 08:11:00,72.6,72.3,29.93,SSW,209,2.0,2.0,99,0.00,,,0.00,Wunderground v.1.15,2013-07-22 12:11:00,
2013-07-22 08:17:00,72.7,72.4,29.93,SSW,209,2.0,3.0,99,0.00,,,0.00,Wunderground v.1.15,2013-07-22 12:17:00,
2013-07-22 08:23:00,72.7,72.1,29.94,SSW,209,2.0,5.0,98,0.00,,,0.00,Wunderground v.1.15,2013-07-22 12:23:00,
2013-07-22 08:29:00,72.6,72.0,29.94,SSW,211,3.0,5.0,98,0.00,,,0.00,Wunderground v.1.15,2013-07-22 12:29:00,
2013-07-22 08:35:00,72.7,72.1,29.93,SSW,206,3.0,4.0,98,0.00,,,0.00,Wunderground v.1.15,2013-07-22 12:35:00,
2013-07-22 08:40:00,72.8,72.2,29.93,SSW,206,3.0,3.0,98,0.00,,,0.00,Wunderground v.1.15,2013-07-22 12:40:00,
2013-07-22 08:46:00,73.1,72.5,29.94,SSW,207,3.0,3.0,98,0.00,,,0.00,Wunderground v.1.15,2013-07-22 12:46:00,
2013-07-22 08:52:00,73.4,72.8,29.94,SSW,207,2.0,3.0,98,0.00,,,0.00,Wunderground v.1.15,2013-07-22 12:52:00,
2013-07-22 08:58:00,73.4,72.8,29.94,SSW,211,2.0,3.0,98,0.00,,,0.00,Wunderground v.1.15,2013-07-22 12:58:00,
2013-07-22 09:04:00,73.7,73.1,29.94,SSW,211,1.0,2.0,98,0.00,,,0.00,Wunderground v.1.15,2013-07-22 13:04:00,
2013-07-22 09:10:00,73.8,73.2,29.94,SSW,213,2.0,2.0,98,0.00,,,0.00,Wunderground v.1.15,2013-07-22 13:10:00,
2013-07-22 09:16:00,74.0,73.4,29.94,SSW,213,1.0,2.0,98,0.00,,,0.00,Wunderground v.1.15,2013-07-22 13:16:00,
2013-07-22 09:22:00,74.0,73.1,29.94,SSW,213,1.0,1.0,97,0.00,,,0.00,Wunderground v.1.15,2013-07-22 13:22:00,
2013-07-22 09:27:00,74.4,73.5,29.94,SSW,213,2.0,3.0,97,0.00,,,0.00,Wunderground v.1.15,2013-07-22 13:27:00,
2013-07-22 09:33:00,74.6,73.7,29.94,SSW,213,2.0,3.0,97,0.00,,,0.00,Wunderground v.1.15,2013-07-22 13:33:00,
2013-07-22 09:39:00,74.7,73.5,29.94,SSW,213,2.0,3.0,96,0.00,,,0.00,Wunderground v.1.15,2013-07-22 13:39:00,
2013-07-22 09:45:00,74.9,73.7,29.94,SSW,213,2.0,3.0,96,0.00,,,0.00,Wunderground v.1.15,2013-07-22 13:45:00,
2013-07-22 09:51:00,75.0,73.8,29.94,SSW,213,2.0,4.0,96,0.00,,,0.00,Wunderground v.1.15,2013-07-22 13:51:00,
2013-07-22 09:57:00,75.0,73.8,29.94,SSW,213,3.0,4.0,96,0.00,,,0.00,Wunderground v.1.15,2013-07-22 13:57:00,
2013-07-22 10:03:00,75.0,73.8,29.94,SSW,213,3.0,5.0,96,0.00,,,0.00,Wunderground v.1.15,2013-07-22 14:03:00,
2013-07-22 10:09:00,75.1,73.6,29.94,SSW,213,2.0,5.0,95,0.00,,,0.00,Wunderground v.1.15,2013-07-22 14:09:00,
2013-07-22 10:15:00,75.1,73.6,29.93,SSW,213,2.0,3.0,95,0.00,,,0.00,Wunderground v.1.15,2013-07-22 14:15:00,
2013-07-22 10:20:00,75.3,73.8,29.94,SSW,213,2.0,3.0,95,0.00,,,0.00,Wunderground v.1.15,2013-07-22 14:20:00,
2013-07-22 10:26:00,75.3,73.8,29.94,SW,221,3.0,5.0,95,0.00,,,0.00,Wunderground v.1.15,2013-07-22 14:26:00,
2013-07-22 10:32:00,75.4,73.9,29.94,SW,221,4.0,5.0,95,0.00,,,0.00,Wunderground v.1.15,2013-07-22 14:32:00,
2013-07-22 10:38:00,75.6,73.8,29.93,SW,219,4.0,5.0,94,0.00,,,0.00,Wunderground v.1.15,2013-07-22 14:38:00,
2013-07-22 10:44:00,75.7,73.8,29.93,SW,220,3.0,5.0,94,0.00,,,0.00,Wunderground v.1.15,2013-07-22 14:44:00,
2013-07-22 10:50:00,75.8,73.9,29.93,SW,215,3.0,3.0,94,0.00,,,0.00,Wunderground v.1.15,2013-07-22 14:50:00,
2013-07-22 10:56:00,76.0,74.1,29.93,SW,219,3.0,8.0,94,0.00,,,0.00,Wunderground v.1.15,2013-07-22 14:56:00,
2013-07-22 11:01:00,76.1,73.9,29.93,SSW,206,4.0,5.0,93,0.00,,,0.00,Wunderground v.1.15,2013-07-22 15:01:00,
2013-07-22 11:07:00,76.1,73.9,29.93,WSW,241,4.0,6.0,93,0.00,,,0.00,Wunderground v.1.15,2013-07-22 15:07:00,
2013-07-22 11:12:00,76.0,73.8,29.93,South,180,5.0,7.0,93,0.00,,,0.00,Wunderground v.1.15,2013-07-22 15:12:00,
2013-07-22 11:18:00,76.0,73.8,29.93,SSW,211,5.0,7.0,93,0.00,,,0.00,Wunderground v.1.15,2013-07-22 15:18:00,
2013-07-22 11:24:00,76.2,74.0,29.94,SSW,209,5.0,6.0,93,0.00,,,0.00,Wunderground v.1.15,2013-07-22 15:24:00,
2013-07-22 11:30:00,76.5,74.3,29.93,SSW,207,5.0,7.0,93,0.00,,,0.00,Wunderground v.1.15,2013-07-22 15:30:00,
2013-07-22 11:36:00,76.8,74.0,29.94,SW,234,5.0,7.0,91,0.00,,,0.00,Wunderground v.1.15,2013-07-22 15:36:00,
2013-07-22 11:42:00,76.7,73.9,29.94,SW,231,5.0,7.0,91,0.00,,,0.00,Wunderground v.1.15,2013-07-22 15:42:00,
2013-07-22 11:47:00,76.9,74.4,29.94,SW,215,5.0,7.0,92,0.00,,,0.00,Wunderground v.1.15,2013-07-22 15:47:00,
2013-07-22 11:53:00,77.0,74.2,29.94,SW,215,5.0,6.0,91,0.00,,,0.00,Wunderground v.1.15,2013-07-22 15:53:00,
2013-07-22 11:59:00,77.0,74.2,29.94,South,189,6.0,6.0,91,0.00,,,0.00,Wunderground v.1.15,2013-07-22 15:59:00,
2013-07-22 12:05:00,77.5,74.3,29.94,WSW,240,5.0,6.0,90,0.00,,,0.00,Wunderground v.1.15,2013-07-22 16:05:00,
2013-07-22 12:11:00,77.8,74.6,29.94,SSW,210,4.0,5.0,90,0.00,,,0.00,Wunderground v.1.15,2013-07-22 16:11:00,
2013-07-22 12:17:00,78.3,74.8,29.93,SW,219,4.0,8.0,89,0.00,,,0.00,Wunderground v.1.15,2013-07-22 16:17:00,
2013-07-22 12:23:00,78.8,74.9,29.93,SW,229,5.0,7.0,88,0.00,,,0.00,Wunderground v.1.15,2013-07-22 16:23:00,
2013-07-22 12:29:00,79.6,75.0,29.93,SW,232,5.0,7.0,86,0.00,,,0.00,Wunderground v.1.15,2013-07-22 16:29:00,
2013-07-22 12:35:00,79.9,75.0,29.93,WSW,253,5.0,8.0,85,0.00,,,0.00,Wunderground v.1.15,2013-07-22 16:35:00,
2013-07-22 12:41:00,80.1,75.2,29.93,SW,219,5.0,6.0,85,0.00,,,0.00,Wunderground v.1.15,2013-07-22 16:41:00,
2013-07-22 12:46:00,80.4,75.1,29.93,SW,217,5.0,8.0,84,0.00,,,0.00,Wunderground v.1.15,2013-07-22 16:46:00,
2013-07-22 12:52:00,80.4,74.8,29.93,SW,223,6.0,7.0,83,0.00,,,0.00,Wunderground v.1.15,2013-07-22 16:52:00,
2013-07-22 12:58:00,80.3,75.0,29.93,SW,221,6.0,7.0,84,0.00,,,0.00,Wunderground v.1.15,2013-07-22 16:58:00,
2013-07-22 13:04:00,80.6,75.0,29.92,SW,225,5.0,9.0,83,0.00,,,0.00,Wunderground v.1.15,2013-07-22 17:04:00,
2013-07-22 13:10:00,81.0,75.0,29.92,SW,229,6.0,6.0,82,0.00,,,0.00,Wunderground v.1.15,2013-07-22 17:10:00,
2013-07-22 13:16:00,81.3,75.3,29.92,SSW,210,5.0,7.0,82,0.00,,,0.00,Wunderground v.1.15,2013-07-22 17:16:00,
2013-07-22 13:22:00,81.6,75.2,29.92,SW,214,6.0,6.0,81,0.00,,,0.00,Wunderground v.1.15,2013-07-22 17:22:00,
2013-07-22 13:28:00,81.9,75.5,29.92,SSW,196,5.0,7.0,81,0.00,,,0.00,Wunderground v.1.15,2013-07-22 17:28:00,
2013-07-22 13:33:00,82.0,75.2,29.91,WSW,237,5.0,10.0,80,0.00,,,0.00,Wunderground v.1.15,2013-07-22 17:33:00,
2013-07-22 13:39:00,81.5,75.5,29.91,WSW,241,6.0,10.0,82,0.00,,,0.00,Wunderground v.1.15,2013-07-22 17:39:00,
2013-07-22 13:45:00,81.6,75.6,29.91,WSW,242,6.0,7.0,82,0.00,,,0.00,Wunderground v.1.15,2013-07-22 17:45:00,
2013-07-22 13:51:00,82.1,75.3,29.90,SW,228,5.0,8.0,80,0.00,,,0.00,Wunderground v.1.15,2013-07-22 17:51:00,
2013-07-22 13:57:00,82.0,75.6,29.90,SW,234,6.0,8.0,81,0.00,,,0.00,Wunderground v.1.15,2013-07-22 17:57:00,
2013-07-22 14:03:00,82.0,74.8,29.90,WSW,243,6.0,7.0,79,0.00,,,0.00,Wunderground v.1.15,2013-07-22 18:03:00,
2013-07-22 14:08:00,82.4,76.0,29.90,SW,231,7.0,7.0,81,0.00,,,0.00,Wunderground v.1.15,2013-07-22 18:08:00,
2013-07-22 14:14:00,83.0,76.6,29.90,South,178,7.0,8.0,81,0.00,,,0.00,Wunderground v.1.15,2013-07-22 18:14:00,
2013-07-22 14:19:00,83.4,76.2,29.90,SW,220,7.0,10.0,79,0.00,,,0.00,Wunderground v.1.15,2013-07-22 18:19:00,
2013-07-22 14:25:00,83.9,75.1,29.89,SSW,211,7.0,9.0,75,0.00,,,0.00,Wunderground v.1.15,2013-07-22 18:25:00,
2013-07-22 14:31:00,84.3,75.9,29.89,SW,215,6.0,7.0,76,0.00,,,0.00,Wunderground v.1.15,2013-07-22 18:31:00,
2013-07-22 14:39:00,84.3,75.5,29.89,SW,234,6.0,9.0,75,0.00,,,0.00,Wunderground v.1.15,2013-07-22 18:39:00,
2013-07-22 14:44:00,84.6,76.6,29.89,SSW,208,7.0,7.0,77,0.00,,,0.00,Wunderground v.1.15,2013-07-22 18:44:00,
2013-07-22 14:50:00,84.2,75.4,29.88,WSW,238,7.0,8.0,75,0.00,,,0.00,Wunderground v.1.15,2013-07-22 18:50:00,
2013-07-22 14:55:00,83.8,75.8,29.88,SSW,213,6.0,8.0,77,0.00,,,0.00,Wunderground v.1.15,2013-07-22 18:55:00,
2013-07-22 15:00:00,84.4,76.0,29.88,South,189,5.0,5.0,76,0.00,,,0.00,Wunderground v.1.15,2013-07-22 19:00:00,
2013-07-22 15:06:00,85.0,76.6,29.88,South,186,6.0,9.0,76,0.00,,,0.00,Wunderground v.1.15,2013-07-22 19:06:00,
2013-07-22 15:12:00,85.5,77.1,29.87,SSW,211,7.0,7.0,76,0.00,,,0.00,Wunderground v.1.15,2013-07-22 19:12:00,
2013-07-22 15:18:00,85.7,75.6,29.87,WSW,239,7.0,11.0,72,0.00,,,0.00,Wunderground v.1.15,2013-07-22 19:18:00,
2013-07-22 15:24:00,85.4,76.2,29.87,WSW,244,8.0,11.0,74,0.00,,,0.00,Wunderground v.1.15,2013-07-22 19:24:00,
2013-07-22 15:29:00,85.5,76.7,29.87,SW,236,8.0,11.0,75,0.00,,,0.00,Wunderground v.1.15,2013-07-22 19:29:00,
2013-07-22 15:34:00,86.0,75.9,29.87,SSW,211,7.0,12.0,72,0.00,,,0.00,Wunderground v.1.15,2013-07-22 19:34:00,
2013-07-22 15:40:00,85.8,75.7,29.86,SSW,198,7.0,7.0,72,0.00,,,0.00,Wunderground v.1.15,2013-07-22 19:40:00,
2013-07-22 15:46:00,85.6,75.9,29.86,WSW,238,7.0,12.0,73,0.00,,,0.00,Wunderground v.1.15,2013-07-22 19:46:00,
2013-07-22 15:52:00,84.7,75.9,29.86,SW,219,5.0,12.0,75,0.00,,,0.00,Wunderground v.1.15,2013-07-22 19:52:00,
2013-07-22 15:58:00,85.1,76.3,29.86,SW,216,6.0,12.0,75,0.00,,,0.00,Wunderground v.1.15,2013-07-22 19:58:00,
2013-07-22 16:03:00,85.3,76.5,29.86,SSW,199,7.0,8.0,75,0.00,,,0.00,Wunderground v.1.15,2013-07-22 20:03:00,
2013-07-22 16:09:00,85.4,76.2,29.85,SW,224,7.0,11.0,74,0.00,,,0.00,Wunderground v.1.15,2013-07-22 20:09:00,
2013-07-22 16:14:00,85.8,76.1,29.85,SSW,211,8.0,9.0,73,0.00,,,0.00,Wunderground v.1.15,2013-07-22 20:14:00,
2013-07-22 16:17:00,86.1,77.6,29.85,SSW,204,7.0,9.0,76,0.00,,,0.00,Wunderground v.1.15,2013-07-22 20:17:00,
2013-07-22 16:19:00,86.2,76.1,29.85,WSW,250,7.0,9.0,72,0.00,,,0.00,Wunderground v.1.15,2013-07-22 20:19:00,
2013-07-22 16:20:00,86.1,76.8,29.85,WSW,245,7.0,7.0,74,0.00,,,0.00,Wunderground v.1.15,2013-07-22 20:20:00,
2013-07-22 16:25:00,86.2,76.5,29.85,SW,215,7.0,10.0,73,0.00,,,0.00,Wunderground v.1.15,2013-07-22 20:25:00,
2013-07-22 16:31:00,85.9,76.2,29.85,SW,219,8.0,9.0,73,0.00,,,0.00,Wunderground v.1.15,2013-07-22 20:31:00,
2013-07-22 16:37:00,86.0,76.7,29.84,WSW,237,8.0,12.0,74,0.00,,,0.00,Wunderground v.1.15,2013-07-22 20:37:00,
2013-07-22 16:42:00,86.0,76.7,29.84,SSW,209,8.0,9.0,74,0.00,,,0.00,Wunderground v.1.15,2013-07-22 20:42:00,
2013-07-22 16:46:00,85.7,75.6,29.84,SW,217,8.0,9.0,72,0.00,,,0.00,Wunderground v.1.15,2013-07-22 20:46:00,
2013-07-22 16:52:00,85.8,76.1,29.84,SSW,200,8.0,9.0,73,0.00,,,0.00,Wunderground v.1.15,2013-07-22 20:52:00,
2013-07-22 16:58:00,86.1,76.8,29.84,South,173,8.0,12.0,74,0.00,,,0.00,Wunderground v.1.15,2013-07-22 20:58:00,
2013-07-22 17:04:00,86.0,76.3,29.83,South,181,9.0,15.0,73,0.00,,,0.00,Wunderground v.1.15,2013-07-22 21:04:00,
2013-07-22 17:10:00,85.8,75.3,29.83,South,178,9.0,9.0,71,0.00,,,0.00,Wunderground v.1.15,2013-07-22 21:10:00,
2013-07-22 17:15:00,85.9,75.8,29.83,SW,214,8.0,10.0,72,0.00,,,0.00,Wunderground v.1.15,2013-07-22 21:15:00,
2013-07-22 17:21:00,85.5,75.0,29.83,SW,220,8.0,11.0,71,0.00,,,0.00,Wunderground v.1.15,2013-07-22 21:21:00,
2013-07-22 17:26:00,85.7,76.0,29.83,South,185,8.0,11.0,73,0.00,,,0.00,Wunderground v.1.15,2013-07-22 21:26:00,
2013-07-22 17:32:00,86.0,75.9,29.83,SSW,196,8.0,8.0,72,0.00,,,0.00,Wunderground v.1.15,2013-07-22 21:32:00,
2013-07-22 17:38:00,85.2,75.6,29.83,South,190,8.0,13.0,73,0.00,,,0.00,Wunderground v.1.15,2013-07-22 21:38:00,
2013-07-22 17:44:00,84.3,75.9,29.83,SSW,207,8.0,10.0,76,0.00,,,0.00,Wunderground v.1.15,2013-07-22 21:44:00,
2013-07-22 17:50:00,84.6,75.8,29.83,SW,217,8.0,8.0,75,0.00,,,0.00,Wunderground v.1.15,2013-07-22 21:50:00,
2013-07-22 17:56:00,84.4,75.6,29.83,SSW,207,9.0,9.0,75,0.00,,,0.00,Wunderground v.1.15,2013-07-22 21:56:00,
2013-07-22 18:02:00,84.2,75.0,29.83,SW,223,9.0,9.0,74,0.00,,,0.00,Wunderground v.1.15,2013-07-22 22:02:00,
2013-07-22 18:07:00,84.7,75.5,29.82,SSW,200,8.0,9.0,74,0.00,,,0.00,Wunderground v.1.15,2013-07-22 22:07:00,
2013-07-22 18:13:00,84.7,75.1,29.82,SW,232,6.0,10.0,73,0.00,,,0.00,Wunderground v.1.15,2013-07-22 22:13:00,
2013-07-22 18:19:00,84.7,75.9,29.82,SSW,204,7.0,10.0,75,0.00,,,0.00,Wunderground v.1.15,2013-07-22 22:19:00,
2013-07-22 18:25:00,84.2,74.6,29.82,SSW,198,8.0,12.0,73,0.00,,,0.00,Wunderground v.1.15,2013-07-22 22:25:00,
2013-07-22 18:31:00,83.8,75.0,29.82,SSW,209,9.0,9.0,75,0.00,,,0.00,Wunderground v.1.15,2013-07-22 22:31:00,
2013-07-22 18:37:00,84.1,75.7,29.82,SSW,204,7.0,9.0,76,0.00,,,0.00,Wunderground v.1.15,2013-07-22 22:37:00,
2013-07-22 18:43:00,84.0,75.6,29.83,SSW,207,7.0,10.0,76,0.00,,,0.00,Wunderground v.1.15,2013-07-22 22:43:00,
2013-07-22 18:49:00,84.2,75.8,29.83,SW,218,6.0,10.0,76,0.00,,,0.00,Wunderground v.1.15,2013-07-22 22:49:00,
2013-07-22 18:54:00,83.9,75.1,29.82,SSW,203,6.0,11.0,75,0.00,,,0.00,Wunderground v.1.15,2013-07-22 22:54:00,
2013-07-22 19:00:00,83.4,75.4,29.82,SW,225,7.0,7.0,77,0.00,,,0.00,Wunderground v.1.15,2013-07-22 23:00:00,
2013-07-22 19:06:00,83.3,75.3,29.82,SSW,208,6.0,8.0,77,0.00,,,0.00,Wunderground v.1.15,2013-07-22 23:06:00,
2013-07-22 19:12:00,82.6,73.9,29.82,South,190,7.0,9.0,75,0.00,,,0.00,Wunderground v.1.15,2013-07-22 23:12:00,
2013-07-22 19:18:00,82.0,74.1,29.83,SSW,209,7.0,9.0,77,0.00,,,0.00,Wunderground v.1.15,2013-07-22 23:18:00,
2013-07-22 19:24:00,81.4,73.5,29.83,SSW,205,6.0,7.0,77,0.00,,,0.00,Wunderground v.1.15,2013-07-22 23:24:00,
2013-07-22 19:30:00,81.0,73.9,29.82,SSW,207,6.0,6.0,79,0.00,,,0.00,Wunderground v.1.15,2013-07-22 23:30:00,
2013-07-22 19:35:00,80.7,73.6,29.82,SW,216,6.0,7.0,79,0.00,,,0.00,Wunderground v.1.15,2013-07-22 23:35:00,
2013-07-22 19:41:00,80.3,73.2,29.82,SW,215,6.0,6.0,79,0.00,,,0.00,Wunderground v.1.15,2013-07-22 23:41:00,
2013-07-22 19:47:00,80.0,73.3,29.82,SSW,211,6.0,6.0,80,0.00,,,0.00,Wunderground v.1.15,2013-07-22 23:47:00,
2013-07-22 19:53:00,79.8,73.1,29.82,SSW,198,5.0,6.0,80,0.00,,,0.00,Wunderground v.1.15,2013-07-22 23:53:00,
2013-07-22 19:59:00,79.6,73.3,29.82,SW,223,5.0,6.0,81,0.00,,,0.00,Wunderground v.1.15,2013-07-22 23:59:00,
2013-07-22 20:04:00,79.4,73.4,29.82,SSW,205,5.0,6.0,82,0.00,,,0.00,Wunderground v.1.15,2013-07-23 00:04:00,
2013-07-22 20:09:00,79.1,73.1,29.82,SSW,199,4.0,6.0,82,0.00,,,0.00,Wunderground v.1.15,2013-07-23 00:09:00,
2013-07-22 20:15:00,78.8,73.2,29.82,South,188,4.0,5.0,83,0.00,,,0.00,Wunderground v.1.15,2013-07-23 00:15:00,
2013-07-22 20:21:00,78.6,73.0,29.82,SSW,202,4.0,5.0,83,0.00,,,0.00,Wunderground v.1.15,2013-07-23 00:21:00,
2013-07-22 20:27:00,78.4,73.2,29.82,SSW,202,3.0,5.0,84,0.00,,,0.00,Wunderground v.1.15,2013-07-23 00:27:00,
2013-07-22 20:33:00,78.0,73.1,29.82,SSW,202,2.0,11.0,85,0.00,,,0.00,Wunderground v.1.15,2013-07-23 00:33:00,
2013-07-22 20:39:00,77.7,73.2,29.82,SSW,202,1.0,11.0,86,0.00,,,0.00,Wunderground v.1.15,2013-07-23 00:39:00,
2013-07-22 20:45:00,77.4,72.9,29.82,SSW,202,0.0,11.0,86,0.00,,,0.00,Wunderground v.1.15,2013-07-23 00:45:00,
2013-07-22 20:50:00,77.2,73.0,29.82,SSW,202,0.0,11.0,87,0.00,,,0.00,Wunderground v.1.15,2013-07-23 00:50:00,
2013-07-22 20:56:00,77.0,73.2,29.82,SSW,202,0.0,11.0,88,0.00,,,0.00,Wunderground v.1.15,2013-07-23 00:56:00,
2013-07-22 21:02:00,76.8,73.0,29.82,SSW,202,0.0,0.0,88,0.00,,,0.00,Wunderground v.1.15,2013-07-23 01:02:00,
2013-07-22 21:08:00,76.6,73.1,29.83,SSW,202,0.0,0.0,89,0.00,,,0.00,Wunderground v.1.15,2013-07-23 01:08:00,
2013-07-22 21:14:00,76.6,73.1,29.82,SSW,202,2.0,4.0,89,0.00,,,0.00,Wunderground v.1.15,2013-07-23 01:14:00,
2013-07-22 21:20:00,76.7,72.9,29.82,SSW,202,3.0,3.0,88,0.00,,,0.00,Wunderground v.1.15,2013-07-23 01:20:00,
2013-07-22 21:26:00,76.7,72.9,29.83,SSW,202,1.0,3.0,88,0.00,,,0.00,Wunderground v.1.15,2013-07-23 01:26:00,
2013-07-22 21:32:00,76.6,73.1,29.83,SSW,202,1.0,7.0,89,0.00,,,0.00,Wunderground v.1.15,2013-07-23 01:32:00,
2013-07-22 21:37:00,76.4,73.2,29.83,SSW,202,1.0,7.0,90,0.00,,,0.00,Wunderground v.1.15,2013-07-23 01:37:00,
2013-07-22 21:43:00,76.1,73.0,29.83,SSW,202,1.0,7.0,90,0.00,,,0.00,Wunderground v.1.15,2013-07-23 01:43:00,
2013-07-22 21:49:00,76.1,73.0,29.83,SSW,202,2.0,7.0,90,0.00,,,0.00,Wunderground v.1.15,2013-07-23 01:49:00,
2013-07-22 21:55:00,76.3,73.1,29.83,SSW,202,3.0,7.0,90,0.00,,,0.00,Wunderground v.1.15,2013-07-23 01:55:00,
2013-07-22 22:00:00,76.4,73.2,29.83,SSW,202,3.0,3.0,90,0.00,,,0.00,Wunderground v.1.15,2013-07-23 02:00:00,
2013-07-22 22:06:00,76.6,73.4,29.83,SSW,202,3.0,7.0,90,0.00,,,0.00,Wunderground v.1.15,2013-07-23 02:06:00,
2013-07-22 22:12:00,76.7,73.2,29.83,South,190,3.0,4.0,89,0.00,,,0.00,Wunderground v.1.15,2013-07-23 02:12:00,
2013-07-22 22:17:00,76.8,73.3,29.84,SW,219,3.0,4.0,89,0.00,,,0.00,Wunderground v.1.15,2013-07-23 02:17:00,
2013-07-22 22:23:00,76.7,73.5,29.84,SSW,205,3.0,5.0,90,0.00,,,0.00,Wunderground v.1.15,2013-07-23 02:23:00,
2013-07-22 22:29:00,76.7,73.5,29.84,SSW,206,3.0,5.0,90,0.00,,,0.00,Wunderground v.1.15,2013-07-23 02:29:00,
2013-07-22 22:35:00,76.7,73.5,29.84,SSW,205,3.0,6.0,90,0.00,,,0.00,Wunderground v.1.15,2013-07-23 02:35:00,
2013-07-22 22:41:00,76.8,73.6,29.84,SSW,203,3.0,6.0,90,0.00,,,0.00,Wunderground v.1.15,2013-07-23 02:41:00,
2013-07-22 22:47:00,76.8,73.6,29.84,SSW,200,4.0,6.0,90,0.00,,,0.00,Wunderground v.1.15,2013-07-23 02:47:00,
2013-07-22 22:53:00,76.7,73.5,29.84,SW,217,4.0,6.0,90,0.00,,,0.00,Wunderground v.1.15,2013-07-23 02:53:00,
2013-07-22 22:58:00,76.8,74.0,29.84,SSW,197,4.0,6.0,91,0.00,,,0.00,Wunderground v.1.15,2013-07-23 02:58:00,
2013-07-22 23:04:00,76.8,73.6,29.84,SSW,207,5.0,6.0,90,0.00,,,0.00,Wunderground v.1.15,2013-07-23 03:04:00,
2013-07-22 23:10:00,76.8,74.0,29.84,SSW,210,5.0,5.0,91,0.00,,,0.00,Wunderground v.1.15,2013-07-23 03:10:00,
2013-07-22 23:16:00,76.7,73.9,29.84,SSW,192,4.0,8.0,91,0.00,,,0.00,Wunderground v.1.15,2013-07-23 03:16:00,
2013-07-22 23:22:00,76.6,73.8,29.83,SSW,202,5.0,5.0,91,0.00,,,0.00,Wunderground v.1.15,2013-07-23 03:22:00,
2013-07-22 23:28:00,76.5,73.7,29.83,SSW,208,5.0,8.0,91,0.00,,,0.00,Wunderground v.1.15,2013-07-23 03:28:00,
2013-07-22 23:34:00,76.4,73.9,29.83,SSW,202,5.0,7.0,92,0.00,,,0.00,Wunderground v.1.15,2013-07-23 03:34:00,
2013-07-22 23:40:00,76.2,73.7,29.84,SSW,201,5.0,7.0,92,0.00,,,0.00,Wunderground v.1.15,2013-07-23 03:40:00,
2013-07-22 23:46:00,76.2,73.7,29.83,South,186,5.0,7.0,92,0.00,,,0.00,Wunderground v.1.15,2013-07-23 03:46:00,
2013-07-22 23:51:00,76.1,73.6,29.83,SSW,205,5.0,7.0,92,0.00,,,0.00,Wunderground v.1.15,2013-07-23 03:51:00,
2013-07-22 23:57:00,76.0,73.5,29.83,SSW,204,5.0,7.0,92,0.00,,,0.00,Wunderground v.1.15,2013-07-23 03:57:00,